This is the latest recevied weather packets stored in our database for station/object KQ4OSL. If no packets are shown the sender has not sent any weather packets the latest 10 day(s).
| Time | Temp. | Humidity | Pressure | Rain* | Wind** | Luminosity | Snow |
|---|---|---|---|---|---|---|---|
| 1787963452 | 24.44° C | 87% | 1018.3 hPa | 0 mm | - | 0 W/m² | - |
| 1787963153 | 25° C | 86% | 1018.4 hPa | 0 mm | - | 0 W/m² | - |
| 1787962851 | 25° C | 83% | 1018.4 hPa | 0 mm | - | 1 W/m² | - |
| 1787962550 | 25.56° C | 83% | 1018.4 hPa | 0 mm | - | 1 W/m² | - |
| 1787962249 | 25.56° C | 84% | 1018.5 hPa | 0 mm | - | 2 W/m² | - |
| 1787961944 | 25.56° C | 82% | 1018.4 hPa | 0 mm | - | 4 W/m² | - |
| 1787961640 | 26.11° C | 82% | 1018.2 hPa | 0 mm | - | 6 W/m² | - |
| 1787961338 | 26.11° C | 80% | 1018.4 hPa | 0 mm | - | 9 W/m² | - |
| 1787961033 | 26.67° C | 81% | 1018.3 hPa | 0 mm | - | 14 W/m² | - |
| 1787960732 | 26.67° C | 80% | 1018.2 hPa | 0 mm | - | 19 W/m² | - |
| 1787960427 | 26.67° C | 79% | 1018.2 hPa | 0 mm | - | 25 W/m² | - |
| 1787960121 | 26.67° C | 78% | 1018.2 hPa | 0 mm | - | 33 W/m² | - |
| 1787959816 | 27.22° C | 78% | 1018.1 hPa | 0 mm | - | 39 W/m² | - |
| 1787959511 | 27.22° C | 77% | 1018.4 hPa | 0 mm | - | 43 W/m² | - |
| 1787959211 | 27.22° C | 77% | 1018.3 hPa | 0 mm | - | 49 W/m² | - |
| 1787958906 | 27.22° C | 77% | 1018.1 hPa | 0 mm | - | 59 W/m² | - |
| 1787958601 | 27.78° C | 78% | 1018 hPa | 0 mm | - | 64 W/m² | - |
| 1787958297 | 27.78° C | 78% | 1018.3 hPa | 0 mm | - | 72 W/m² | - |
| 1787957996 | 27.78° C | 79% | 1018.1 hPa | 0 mm | - | 76 W/m² | - |
| 1787957695 | 28.33° C | 76% | 1018.1 hPa | 0 mm | - | 98 W/m² | - |
| 1787957391 | 28.33° C | 77% | 1018 hPa | 0 mm | - | 98 W/m² | - |
| 1787957090 | 28.89° C | 78% | 1018.2 hPa | 0 mm | - | 95 W/m² | - |
| 1787956785 | 28.89° C | 77% | 1018.1 hPa | 0 mm | - | 95 W/m² | - |
| 1787956480 | 28.89° C | 76% | 1018.3 hPa | 0 mm | - | 89 W/m² | - |
| 1787956181 | 28.89° C | 75% | 1018.3 hPa | 0 mm | - | 81 W/m² | - |
* Rain latest hour (hover to see other rain measurements)
** Current wind speed in m/s (hover to see current wind gust speed)